Weather History for Newark, NJ

Change the Weather History Date:

Sunday, March 24, 2013

  Actual Average Record
Temperature  
Mean Temperature 40 °F 45 °F  
Max Temperature 47 °F 53 °F 77 °F (1988)
Min Temperature 32 °F 36 °F 16 °F (1940)
Degree Days  
Heating Degree Days 25 20  
Month to date heating degree days 621 576  
Since 1 July heating degree days 4001 4211  
Cooling Degree Days 0 0  
Month to date cooling degree days 0 0  
Year to date cooling degree days 0 0  
Moisture  
Dew Point 20 °F    
Average Humidity 45    
Maximum Humidity 55    
Minimum Humidity 34    
Precipitation  
Precipitation 0.00 in 0.14 in 1.38 in (1969)
Month to date precipitation 2.79 3.17  
Year to date precipitation 9.13 9.59  
Snow  
Snow 0.00 in 0.10 in 0.70 in (1956)
Month to date snowfall 8.8 4.0  
Since 1 July snowfall 29.5 27.0  
Snow Depth 0.00 in    
Sea Level Pressure  
Sea Level Pressure 29.84 in    
Wind  
Wind Speed 8 mph (NW)    
Max Wind Speed 20 mph    
Max Gust Speed 25 mph    
Visibility 10 miles    
Events      
T = Trace of Precipitation, MM = Missing Value Source: NWS Daily Summary

Daily Weather History Graph

Daily Weather History Graph

Search for Another Location

Airport:

Trip Planner

Search our weather history database for the weather conditions in past years. The results will help you decide how hot, cold, wet, or windy it might be!

Date:

Astronomy

Mar. 24, 2013 Rise Set
Actual Time 6:53 AM EDT 7:13 PM EDT
Civil Twilight 6:25 AM EDT 7:40 PM EDT
Nautical Twilight 5:53 AM EDT 8:12 PM EDT
Astronomical Twilight 5:20 AM EDT 8:45 PM EDT
Moon 4:38 PM EDT (3/24) 5:02 AM EDT (3/24)
Length of Visible Light 13h 14m
Length of Day
12h 20m
Waxing Gibbous, 91% of the Moon is Illuminated
Mar 24
Waxing Gibbous
Mar 27
Full
Apr 3
Last Quarter
Apr 10
New
Apr 18
First Quarter

Hourly Weather History & Observations

Time (EDT) Temp. Windchill Dew Point Humidity Pressure Visibility Wind Dir Wind Speed Gust Speed Precip Events Conditions
12:51 AM 37.0 °F 28.5 °F 17.1 °F 44% 29.94 in 10.0 mi NNW 13.8 mph - N/A   Partly Cloudy
1:51 AM 36.0 °F 28.5 °F 17.1 °F 46% 29.93 in 10.0 mi NW 10.4 mph - N/A   Clear
2:51 AM 35.1 °F 27.9 °F 17.1 °F 48% 29.91 in 10.0 mi NW 9.2 mph - N/A   Clear
3:51 AM 34.0 °F 29.8 °F 17.1 °F 50% 29.92 in 10.0 mi West 4.6 mph - N/A   Clear
4:51 AM 33.1 °F 27.7 °F 17.1 °F 52% 29.93 in 10.0 mi West 5.8 mph - N/A   Clear
5:51 AM 32.0 °F 25.6 °F 17.1 °F 54% 29.94 in 10.0 mi West 6.9 mph - N/A   Clear
6:51 AM 33.1 °F 26.9 °F 17.1 °F 52% 29.93 in 10.0 mi West 6.9 mph 17.3 mph N/A   Clear
7:51 AM 34.0 °F 28.0 °F 18.0 °F 52% 29.95 in 10.0 mi West 6.9 mph - N/A   Scattered Clouds
8:51 AM 37.0 °F 28.1 °F 19.0 °F 48% 29.95 in 10.0 mi WNW 15.0 mph - N/A   Scattered Clouds
9:51 AM 39.9 °F 31.8 °F 18.0 °F 41% 29.94 in 10.0 mi NW 15.0 mph 23.0 mph N/A   Scattered Clouds
10:51 AM 42.1 °F 34.9 °F 18.0 °F 38% 29.91 in 10.0 mi NW 13.8 mph 25.3 mph N/A   Scattered Clouds
11:51 AM 43.0 °F 37.2 °F 19.0 °F 38% 29.87 in 10.0 mi North 10.4 mph 18.4 mph N/A   Mostly Cloudy
12:51 PM 45.0 °F 38.2 °F 19.0 °F 36% 29.84 in 10.0 mi NNW 15.0 mph 23.0 mph N/A   Mostly Cloudy
1:51 PM 46.0 °F 41.9 °F 19.0 °F 34% 29.81 in 10.0 mi North 8.1 mph - N/A   Mostly Cloudy
2:51 PM 46.0 °F 42.5 °F 19.9 °F 35% 29.76 in 10.0 mi NNE 6.9 mph - N/A   Mostly Cloudy
3:51 PM 46.0 °F 43.9 °F 19.0 °F 34% 29.74 in 10.0 mi Variable 4.6 mph - N/A   Mostly Cloudy
4:51 PM 46.9 °F - 21.0 °F 36% 29.71 in 10.0 mi NNE 6.9 mph - N/A   Overcast
5:51 PM 46.4 °F 42.4 °F 19.4 °F 34% 29.72 in 10.0 mi ENE 8.1 mph - N/A   Overcast
6:51 PM 44.1 °F 37.1 °F 21.0 °F 40% 29.71 in 10.0 mi North 15.0 mph - N/A   Overcast
7:51 PM 41.0 °F 35.2 °F 27.0 °F 57% 29.75 in 10.0 mi SE 9.2 mph - N/A   Overcast
8:51 PM 41.0 °F 39.0 °F 25.0 °F 53% 29.76 in 10.0 mi SSE 3.5 mph - N/A   Overcast
9:51 PM 39.9 °F - 25.0 °F 55% 29.76 in 10.0 mi Calm Calm - N/A   Overcast
10:51 PM 39.9 °F - 24.1 °F 53% 29.75 in 10.0 mi Calm Calm - N/A   Overcast
11:51 PM 41.0 °F - 24.1 °F 51% 29.72 in 10.0 mi Calm Calm - N/A   Overcast